User: anonymous   Login
Location: Daytona Beach
(29.2106°N, 81.0231°W)
Time: 12:38:20
(UTC-04:00)
Language:

LO-87 - Orbit

View from above orbital plane
View from above orbital plane
View from above satellite
View from above satellite

Ground track
Ground track

The orbit data is extracted from the following two-line orbital elements,

1 41557U 16033B   21268.21866367  .00003061  00000-0  10806-3 0  9991
2 41557  97.3939   1.6308 0011320 237.1711 206.5260 15.29948576296780
Epoch (UTC): 25 September 2021 05:14:52
Eccentricity: 0.0011320
inclination: 97.3939°
perigee height: 468 km
apogee height: 484 km
right ascension of ascending node: 1.6308°
argument of perigee: 237.1711°
revolutions per day: 15.29948576
mean anomaly at epoch: 206.5260°
orbit number at epoch: 29678

The dashed part of the orbit path shows where the satellite is in the earth's shadow,  

DLR